User: anonymous   Login
Location: Theydon Bois
(51.6750°N, 0.1050°E)
Time: 19:43:05
(UTC+01:00)
Language:

SL-14 R/B - Orbit

View from above orbital plane
View from above orbital plane
View from above satellite
View from above satellite

Ground track
Ground track

The orbit data is extracted from the following two-line orbital elements,

1 33505U 09003B   17290.86755450 +.00001116 +00000-0 +66803-4 0  9993
2 33505 082.3893 118.5269 0029661 111.7558 248.6833 15.09637779479317
Epoch (UTC): 17 October 2017 20:49:16
Eccentricity: 0.0029661
inclination: 82.3893°
perigee height: 517 km
apogee height: 558 km
right ascension of ascending node: 118.5269°
argument of perigee: 111.7558°
revolutions per day: 15.09637779
mean anomaly at epoch: 248.6833°
orbit number at epoch: 47931

The dashed part of the orbit path shows where the satellite is in the earth's shadow,  

DLR